Weather in Veliky Bichkov

Ukraine / Zakarpattia District     47˚58′18″N   24˚00′02″E
temp.,
°C
wind,
m/s
gust,
m/s
humid.,
%
clouds,
%
prec.,
mm/h
press.,
hPa
HPBL,
m
2 december, wed
wed223:00−4˚e11550 0.0 102622
02:00−4˚e11530 0.0 102621
05:00−5˚e11480 0.0 102521
08:00−5˚e11440 0.0 102621
11:00ese01310 0.0 1025179
14:00+1˚s11303 0.0 1023209
17:00−2˚e11370 0.0 102321
20:00−3˚e11391 0.0 102321
3 december, thu
thu323:00−3˚ese114232 0.0 102221
02:00−3˚ese115163 0.0 102121
05:00−3˚ese116336 0.0 102021
08:00−3˚ese126328 0.0 101922
11:00+2˚se124436 0.0 101896
14:00+5˚ese114345 0.0 101534
17:00+2˚ese124780 0.0 101522
20:00+1˚e125550 0.0 101422
4 december, fri
fri423:00+1˚e12634 0.0 101422
02:00+1˚ese22653 0.0 101322
05:00+1˚e12636 0.0 101122
08:00+2˚ese126326 0.0 101122
11:00+6˚ese12570 0.0 101162
14:00+7˚se12620 0.0 101032
17:00+3˚ese12752 0.0 101122
20:00+2˚ese22751 0.0 101223
5 december, sat
sat523:00+2˚ese228030 0.0 101323
02:00+3˚ese228342 0.0 101423
05:00+3˚ese228448 0.0 101323
08:00+3˚ese228524 0.0 101422
11:00+8˚ese12750 0.0 101442
14:00+9˚ese11740 0.0 101427
17:00+5˚ese12820 0.0 101522
20:00+4˚e12853 0.0 101622
6 december, sun
sun623:00+4˚ese228435 0.0 101623
02:00+4˚e228437 0.0 101622
05:00+3˚ese228555 0.0 101623
08:00+3˚e128541 0.0 101522
11:00+8˚e11730 0.0 101471
14:00+10˚ese117115 0.0 101360
17:00+6˚ese228126 0.0 101225
20:00+4˚ese228413 0.0 101227